Time,TemperatureF,DewpointF,PressureIn,WindDirection,WindDirectionDegrees,WindSpeedMPH,WindSpeedGustMPH,Humidity,HourlyPrecipIn,Conditions,Clouds,dailyrainin,SoftwareType,DateUTC
2013-10-07 00:00:00,65.5,49.4,29.90,NE,44,0.0,0.0,56,0.00,,,0.00,VWS V15.00,2013-10-07 04:00:00,
2013-10-07 00:01:00,66.0,52.2,29.88,NE,49,0.0,0.0,61,0.00,,,0.00,VWS V14.01,2013-10-07 04:01:00,
2013-10-07 00:02:00,66.0,52.6,29.88,NE,49,0.0,0.0,62,0.00,,,0.00,VWS V14.01,2013-10-07 04:02:00,
2013-10-07 00:07:00,66.1,51.8,29.88,NE,49,0.0,0.0,60,0.00,,,0.00,VWS V14.01,2013-10-07 04:07:00,
2013-10-07 00:12:00,66.2,51.5,29.88,NE,49,0.0,0.0,59,0.00,,,0.00,VWS V14.01,2013-10-07 04:12:00,
2013-10-07 00:17:00,66.2,51.5,29.88,NE,49,0.0,0.0,59,0.00,,,0.00,VWS V14.01,2013-10-07 04:17:00,
2013-10-07 00:22:00,66.2,50.5,29.87,NE,49,0.0,0.0,57,0.00,,,0.00,VWS V14.01,2013-10-07 04:22:00,
2013-10-07 00:27:00,66.1,48.5,29.87,NE,49,0.0,0.0,53,0.00,,,0.00,VWS V14.01,2013-10-07 04:27:00,
2013-10-07 00:30:00,65.7,50.5,29.89,NE,44,0.0,1.0,58,0.00,,,0.00,VWS V15.00,2013-10-07 04:30:00,
2013-10-07 00:32:00,65.9,46.2,29.87,NE,49,0.0,0.0,49,0.01,,,0.01,VWS V14.01,2013-10-07 04:32:00,
2013-10-07 00:37:00,65.8,43.9,29.87,NE,49,0.0,0.0,45,0.01,,,0.01,VWS V14.01,2013-10-07 04:37:00,
2013-10-07 00:42:00,65.6,40.7,29.87,NE,49,0.0,0.0,40,0.01,,,0.01,VWS V14.01,2013-10-07 04:42:00,
2013-10-07 00:47:00,65.4,37.8,29.87,NE,49,0.0,0.0,36,0.02,,,0.02,VWS V14.01,2013-10-07 04:47:00,
2013-10-07 00:52:00,65.2,35.4,29.87,NE,49,0.0,0.0,33,0.04,,,0.04,VWS V14.01,2013-10-07 04:52:00,
2013-10-07 00:57:00,65.1,32.1,29.87,NE,49,0.0,1.0,29,0.07,,,0.07,VWS V14.01,2013-10-07 04:57:00,
2013-10-07 01:00:00,65.9,51.6,29.88,NE,49,0.0,2.0,60,0.00,,,0.00,VWS V15.00,2013-10-07 05:00:00,
2013-10-07 01:02:00,64.9,29.2,29.87,NE,49,0.0,1.0,26,0.10,,,0.10,VWS V14.01,2013-10-07 05:02:00,
2013-10-07 01:07:00,64.8,27.2,29.87,NW,322,0.0,2.0,24,0.12,,,0.12,VWS V14.01,2013-10-07 05:07:00,
2013-10-07 01:12:00,64.6,23.8,29.87,WNW,289,0.0,4.0,21,0.16,,,0.16,VWS V14.01,2013-10-07 05:12:00,
2013-10-07 01:17:00,64.4,25.8,29.86,NW,325,0.0,4.0,23,0.23,,,0.23,VWS V14.01,2013-10-07 05:17:00,
2013-10-07 01:22:00,64.1,28.5,29.85,West,278,0.0,4.0,26,0.28,,,0.28,VWS V14.01,2013-10-07 05:22:00,
2013-10-07 01:27:00,63.7,31.7,29.85,West,278,0.0,4.0,30,0.31,,,0.31,VWS V14.01,2013-10-07 05:27:00,
2013-10-07 01:30:00,66.0,47.9,29.87,NE,49,0.0,0.0,52,0.00,,,0.00,VWS V15.00,2013-10-07 05:30:00,
2013-10-07 01:32:00,63.5,29.0,29.86,West,278,0.0,0.0,27,0.34,,,0.34,VWS V14.01,2013-10-07 05:32:00,
2013-10-07 01:37:00,63.3,27.9,29.86,West,278,0.0,0.0,26,0.36,,,0.36,VWS V14.01,2013-10-07 05:37:00,
2013-10-07 01:42:00,63.1,24.7,29.86,West,278,0.0,0.0,23,0.37,,,0.37,VWS V14.01,2013-10-07 05:42:00,
2013-10-07 01:47:00,63.0,22.5,29.86,West,278,0.0,0.0,21,0.40,,,0.40,VWS V14.01,2013-10-07 05:47:00,
2013-10-07 01:52:00,62.9,20.0,29.86,West,278,0.0,0.0,19,0.42,,,0.42,VWS V14.01,2013-10-07 05:52:00,
2013-10-07 01:57:00,62.8,17.4,29.86,West,278,0.0,0.0,17,0.46,,,0.46,VWS V14.01,2013-10-07 05:57:00,
2013-10-07 02:00:00,65.0,31.1,29.87,NE,49,0.0,1.0,28,0.08,,,0.08,VWS V15.00,2013-10-07 06:00:00,
2013-10-07 02:02:00,62.8,16.0,29.86,West,278,0.0,0.0,16,0.40,,,0.48,VWS V14.01,2013-10-07 06:02:00,
2013-10-07 02:07:00,62.7,14.4,29.85,West,278,0.0,0.0,15,0.44,,,0.52,VWS V14.01,2013-10-07 06:07:00,
2013-10-07 02:12:00,62.6,14.3,29.84,West,278,0.0,0.0,15,0.46,,,0.54,VWS V14.01,2013-10-07 06:12:00,
2013-10-07 02:17:00,62.6,12.8,29.83,West,278,0.0,0.0,14,0.48,,,0.56,VWS V14.01,2013-10-07 06:17:00,
2013-10-07 02:21:00,62.4,12.6,29.82,West,278,0.0,0.0,14,0.51,,,0.59,VWS V14.01,2013-10-07 06:21:00,
2013-10-07 02:26:00,62.2,14.0,29.82,West,278,0.0,0.0,15,0.54,,,0.62,VWS V14.01,2013-10-07 06:26:00,
2013-10-07 02:30:00,63.6,30.8,29.85,West,278,0.0,4.0,29,0.32,,,0.32,VWS V15.00,2013-10-07 06:30:00,
2013-10-07 02:31:00,62.1,12.4,29.83,West,278,0.0,0.0,14,0.32,,,0.64,VWS V14.01,2013-10-07 06:31:00,
2013-10-07 02:36:00,62.1,8.9,29.83,West,278,0.0,0.0,12,0.33,,,0.65,VWS V14.01,2013-10-07 06:36:00,
2013-10-07 02:41:00,62.0,6.9,29.83,West,278,0.0,0.0,11,0.33,,,0.65,VWS V14.01,2013-10-07 06:41:00,
2013-10-07 02:46:00,61.9,6.8,29.83,West,278,0.0,0.0,11,0.34,,,0.66,VWS V14.01,2013-10-07 06:46:00,
2013-10-07 02:51:00,61.9,4.8,29.83,West,278,0.0,0.0,10,0.34,,,0.66,VWS V14.01,2013-10-07 06:51:00,
2013-10-07 02:56:00,61.8,4.7,29.82,West,278,0.0,0.0,10,0.34,,,0.66,VWS V14.01,2013-10-07 06:56:00,
2013-10-07 03:00:00,62.8,17.4,29.86,West,278,0.0,0.0,17,0.47,,,0.47,VWS V15.00,2013-10-07 07:00:00,
2013-10-07 03:01:00,61.8,2.4,29.82,West,278,0.0,0.0,9,0.19,,,0.66,VWS V14.01,2013-10-07 07:01:00,
2013-10-07 03:06:00,61.8,2.4,29.82,West,278,0.0,0.0,9,0.19,,,0.66,VWS V14.01,2013-10-07 07:06:00,
2013-10-07 03:11:00,61.9,-0.1,29.82,West,278,0.0,0.0,8,0.19,,,0.66,VWS V14.01,2013-10-07 07:11:00,
2013-10-07 03:16:00,61.9,-0.1,29.82,West,278,0.0,0.0,8,0.19,,,0.66,VWS V14.01,2013-10-07 07:16:00,
2013-10-07 03:21:00,61.8,-0.1,29.81,West,278,0.0,0.0,8,0.19,,,0.66,VWS V14.01,2013-10-07 07:21:00,
2013-10-07 03:26:00,61.8,-0.1,29.81,West,278,0.0,0.0,8,0.19,,,0.66,VWS V14.01,2013-10-07 07:26:00,
2013-10-07 03:30:00,62.2,12.4,29.83,West,278,0.0,0.0,14,0.54,,,0.62,VWS V15.00,2013-10-07 07:30:00,
2013-10-07 03:31:00,61.8,-2.9,29.81,West,278,0.0,0.0,7,0.04,,,0.66,VWS V14.01,2013-10-07 07:31:00,
2013-10-07 03:36:00,61.8,-2.9,29.80,West,278,0.0,0.0,7,0.04,,,0.66,VWS V14.01,2013-10-07 07:36:00,
2013-10-07 03:41:00,61.8,-2.9,29.81,West,278,0.0,0.0,7,0.04,,,0.66,VWS V14.01,2013-10-07 07:41:00,
2013-10-07 03:46:00,61.8,-2.9,29.81,West,278,0.0,1.0,7,0.07,,,0.69,VWS V14.01,2013-10-07 07:46:00,
2013-10-07 03:51:00,61.8,-2.9,29.81,West,278,0.0,1.0,7,0.10,,,0.72,VWS V14.01,2013-10-07 07:51:00,
2013-10-07 03:56:00,61.8,-2.9,29.81,West,278,0.0,1.0,7,0.13,,,0.75,VWS V14.01,2013-10-07 07:56:00,
2013-10-07 04:00:00,61.8,4.7,29.82,West,278,0.0,0.0,10,0.34,,,0.66,VWS V15.00,2013-10-07 08:00:00,
2013-10-07 04:01:00,61.7,-3.0,29.81,West,278,0.0,0.0,7,0.10,,,0.76,VWS V14.01,2013-10-07 08:01:00,
2013-10-07 04:06:00,61.6,-3.1,29.81,West,278,0.0,0.0,7,0.12,,,0.78,VWS V14.01,2013-10-07 08:06:00,
2013-10-07 04:11:00,61.6,-3.1,29.80,West,278,0.0,0.0,7,0.13,,,0.79,VWS V14.01,2013-10-07 08:11:00,
2013-10-07 04:16:00,61.5,-3.2,29.80,West,278,0.0,0.0,7,0.14,,,0.80,VWS V14.01,2013-10-07 08:16:00,
2013-10-07 04:21:00,61.5,-3.2,29.80,West,278,0.0,0.0,7,0.14,,,0.80,VWS V14.01,2013-10-07 08:21:00,
2013-10-07 04:26:00,61.5,-6.4,29.80,West,278,0.0,0.0,6,0.14,,,0.80,VWS V14.01,2013-10-07 08:26:00,
2013-10-07 04:30:00,61.8,-0.1,29.81,West,278,0.0,0.0,8,0.19,,,0.66,VWS V15.00,2013-10-07 08:30:00,
2013-10-07 04:31:00,61.5,-6.4,29.81,West,278,0.0,0.0,6,0.14,,,0.80,VWS V14.01,2013-10-07 08:31:00,
2013-10-07 04:36:00,61.5,-6.4,29.80,West,278,0.0,0.0,6,0.15,,,0.81,VWS V14.01,2013-10-07 08:36:00,
2013-10-07 04:41:00,61.5,-6.4,29.80,West,278,0.0,0.0,6,0.15,,,0.81,VWS V14.01,2013-10-07 08:41:00,
2013-10-07 04:46:00,61.5,-6.4,29.81,West,278,0.0,0.0,6,0.20,,,0.86,VWS V14.01,2013-10-07 08:46:00,
2013-10-07 04:51:00,61.5,-6.4,29.80,West,278,0.0,0.0,6,0.25,,,0.91,VWS V14.01,2013-10-07 08:51:00,
2013-10-07 04:56:00,61.6,-10.0,29.81,West,278,0.0,0.0,5,0.29,,,0.95,VWS V14.01,2013-10-07 08:56:00,
2013-10-07 05:00:00,61.7,-3.0,29.81,West,278,0.0,1.0,7,0.14,,,0.76,VWS V15.00,2013-10-07 09:00:00,
2013-10-07 05:01:00,61.6,-10.0,29.81,West,278,0.0,0.0,5,0.22,,,0.98,VWS V14.01,2013-10-07 09:01:00,
2013-10-07 05:06:00,61.6,-10.0,29.81,West,278,0.0,0.0,5,0.24,,,1.00,VWS V14.01,2013-10-07 09:06:00,
2013-10-07 05:11:00,61.6,-10.0,29.81,West,278,0.0,0.0,5,0.27,,,1.03,VWS V14.01,2013-10-07 09:11:00,
2013-10-07 05:16:00,61.6,-10.0,29.81,West,278,0.0,0.0,5,0.31,,,1.07,VWS V14.01,2013-10-07 09:16:00,
2013-10-07 05:21:00,61.6,-10.0,29.81,West,278,0.0,0.0,5,0.34,,,1.10,VWS V14.01,2013-10-07 09:21:00,
2013-10-07 05:26:00,61.6,-10.0,29.81,West,278,0.0,0.0,5,0.36,,,1.12,VWS V14.01,2013-10-07 09:26:00,
2013-10-07 05:30:00,61.5,-6.4,29.80,West,278,0.0,0.0,6,0.14,,,0.80,VWS V15.00,2013-10-07 09:30:00,
2013-10-07 05:31:00,61.6,-10.0,29.82,West,278,0.0,0.0,5,0.34,,,1.14,VWS V14.01,2013-10-07 09:31:00,
2013-10-07 05:36:00,61.6,-10.0,29.82,West,278,0.0,0.0,5,0.36,,,1.16,VWS V14.01,2013-10-07 09:36:00,
2013-10-07 05:41:00,61.6,-10.0,29.82,West,278,0.0,0.0,5,0.40,,,1.20,VWS V14.01,2013-10-07 09:41:00,
2013-10-07 05:46:00,61.6,-10.0,29.82,West,278,0.0,0.0,5,0.42,,,1.22,VWS V14.01,2013-10-07 09:46:00,
2013-10-07 05:51:00,61.6,-10.0,29.82,West,278,0.0,0.0,5,0.44,,,1.24,VWS V14.01,2013-10-07 09:51:00,
2013-10-07 05:56:00,61.6,-10.0,29.82,West,278,0.0,0.0,5,0.46,,,1.26,VWS V14.01,2013-10-07 09:56:00,
2013-10-07 06:00:00,61.6,-10.0,29.81,West,278,0.0,0.0,5,0.31,,,0.97,VWS V15.00,2013-10-07 10:00:00,
2013-10-07 06:01:00,61.6,-10.0,29.82,West,278,0.0,0.0,5,0.29,,,1.26,VWS V14.01,2013-10-07 10:01:00,
2013-10-07 06:06:00,61.6,-10.0,29.82,West,278,0.0,0.0,5,0.29,,,1.26,VWS V14.01,2013-10-07 10:06:00,
2013-10-07 06:11:00,61.6,-10.0,29.82,West,278,0.0,0.0,5,0.30,,,1.27,VWS V14.01,2013-10-07 10:11:00,
2013-10-07 06:16:00,61.6,-10.0,29.83,West,278,0.0,1.0,5,0.31,,,1.28,VWS V14.01,2013-10-07 10:16:00,
2013-10-07 06:21:00,61.6,-10.0,29.83,West,278,0.0,1.0,5,0.33,,,1.30,VWS V14.01,2013-10-07 10:21:00,
2013-10-07 06:26:00,61.6,-10.0,29.83,West,278,0.0,1.0,5,0.34,,,1.31,VWS V14.01,2013-10-07 10:26:00,
2013-10-07 06:30:00,61.6,-10.0,29.81,West,278,0.0,0.0,5,0.37,,,1.13,VWS V15.00,2013-10-07 10:30:00,
2013-10-07 06:31:00,61.6,-10.0,29.83,West,278,0.0,2.0,5,0.19,,,1.32,VWS V14.01,2013-10-07 10:31:00,
2013-10-07 06:36:00,61.6,-14.5,29.83,West,278,0.0,2.0,4,0.21,,,1.34,VWS V14.01,2013-10-07 10:36:00,
2013-10-07 06:41:00,61.7,-14.4,29.82,West,278,0.0,2.0,4,0.21,,,1.34,VWS V14.01,2013-10-07 10:41:00,
2013-10-07 06:46:00,61.6,-14.5,29.83,West,278,0.0,2.0,4,0.22,,,1.35,VWS V14.01,2013-10-07 10:46:00,
2013-10-07 06:51:00,61.6,-14.5,29.83,West,278,0.0,2.0,4,0.23,,,1.36,VWS V14.01,2013-10-07 10:51:00,
2013-10-07 06:56:00,61.5,-10.1,29.83,West,278,0.0,2.0,5,0.25,,,1.38,VWS V14.01,2013-10-07 10:56:00,
2013-10-07 07:00:00,61.6,-10.0,29.82,West,278,0.0,0.0,5,0.46,,,1.26,VWS V15.00,2013-10-07 11:00:00,
2013-10-07 07:01:00,61.5,-10.1,29.82,West,278,0.0,0.0,5,0.14,,,1.40,VWS V14.01,2013-10-07 11:01:00,
2013-10-07 07:06:00,61.5,-10.1,29.82,West,278,0.0,0.0,5,0.15,,,1.41,VWS V14.01,2013-10-07 11:06:00,
2013-10-07 07:11:00,61.4,-10.1,29.82,West,278,0.0,0.0,5,0.16,,,1.42,VWS V14.01,2013-10-07 11:11:00,
2013-10-07 07:16:00,61.4,-10.1,29.82,West,278,0.0,0.0,5,0.16,,,1.42,VWS V14.01,2013-10-07 11:16:00,
2013-10-07 07:21:00,61.4,-10.1,29.80,West,278,0.0,0.0,5,0.17,,,1.43,VWS V14.01,2013-10-07 11:21:00,
2013-10-07 07:26:00,61.3,-10.2,29.81,West,278,0.0,0.0,5,0.17,,,1.43,VWS V14.01,2013-10-07 11:26:00,
2013-10-07 07:30:00,61.6,-10.0,29.83,West,278,0.0,1.0,5,0.35,,,1.32,VWS V15.00,2013-10-07 11:30:00,
2013-10-07 07:31:00,61.3,-10.2,29.81,West,278,0.0,0.0,5,0.11,,,1.43,VWS V14.01,2013-10-07 11:31:00,
2013-10-07 07:36:00,61.2,-10.3,29.81,West,278,0.0,0.0,5,0.11,,,1.43,VWS V14.01,2013-10-07 11:36:00,
2013-10-07 07:41:00,61.2,-10.3,29.82,West,278,0.0,0.0,5,0.11,,,1.43,VWS V14.01,2013-10-07 11:41:00,
2013-10-07 07:46:00,61.2,-10.3,29.83,West,278,0.0,0.0,5,0.12,,,1.44,VWS V14.01,2013-10-07 11:46:00,
2013-10-07 07:51:00,61.2,-10.3,29.83,WNW,290,1.0,5.0,5,0.12,,,1.44,VWS V14.01,2013-10-07 11:51:00,
2013-10-07 07:56:00,61.3,-10.2,29.83,West,259,3.0,5.0,5,0.12,,,1.44,VWS V14.01,2013-10-07 11:56:00,
2013-10-07 08:00:00,61.5,-10.1,29.83,West,278,0.0,2.0,5,0.26,,,1.39,VWS V15.00,2013-10-07 12:00:00,
2013-10-07 08:01:00,61.1,-10.4,29.83,West,275,2.0,6.0,5,0.05,,,1.44,VWS V14.01,2013-10-07 12:01:00,
2013-10-07 08:06:00,60.7,-6.9,29.83,NNW,331,1.0,9.0,6,0.05,,,1.44,VWS V14.01,2013-10-07 12:06:00,
2013-10-07 08:11:00,60.2,-4.1,29.83,West,273,3.0,9.0,7,0.05,,,1.44,VWS V14.01,2013-10-07 12:11:00,
2013-10-07 08:16:00,59.8,0.9,29.83,West,279,1.0,9.0,9,0.05,,,1.44,VWS V14.01,2013-10-07 12:16:00,
2013-10-07 08:21:00,59.5,2.9,29.82,West,277,0.0,9.0,10,0.05,,,1.44,VWS V14.01,2013-10-07 12:21:00,
2013-10-07 08:26:00,59.2,4.7,29.83,WNW,284,0.0,9.0,11,0.05,,,1.44,VWS V14.01,2013-10-07 12:26:00,
2013-10-07 08:30:00,61.3,-10.2,29.81,West,278,0.0,0.0,5,0.17,,,1.43,VWS V15.00,2013-10-07 12:30:00,
2013-10-07 08:31:00,58.9,6.4,29.83,WNW,287,0.0,6.0,12,0.01,,,1.44,VWS V14.01,2013-10-07 12:31:00,
2013-10-07 08:36:00,58.6,6.2,29.84,WNW,288,0.0,6.0,12,0.01,,,1.44,VWS V14.01,2013-10-07 12:36:00,
2013-10-07 08:41:00,58.4,7.8,29.83,West,277,0.0,6.0,13,0.01,,,1.44,VWS V14.01,2013-10-07 12:41:00,
2013-10-07 08:46:00,58.2,7.6,29.84,West,277,0.0,6.0,13,0.01,,,1.44,VWS V14.01,2013-10-07 12:46:00,
2013-10-07 08:51:00,58.0,7.4,29.84,West,267,0.0,6.0,13,0.01,,,1.44,VWS V14.01,2013-10-07 12:51:00,
2013-10-07 08:56:00,57.9,7.4,29.84,West,277,0.0,6.0,13,0.01,,,1.44,VWS V14.01,2013-10-07 12:56:00,
2013-10-07 09:00:00,61.3,-14.7,29.83,West,269,0.0,5.0,4,0.12,,,1.44,VWS V15.00,2013-10-07 13:00:00,
2013-10-07 09:01:00,57.7,10.4,29.85,West,275,0.0,1.0,15,0.00,,,1.44,VWS V14.01,2013-10-07 13:01:00,
2013-10-07 09:06:00,57.4,11.6,29.85,West,275,0.0,1.0,16,0.00,,,1.44,VWS V14.01,2013-10-07 13:06:00,
2013-10-07 09:11:00,57.2,12.8,29.84,WNW,300,0.0,2.0,17,0.00,,,1.44,VWS V14.01,2013-10-07 13:11:00,
2013-10-07 09:16:00,57.0,13.9,29.84,West,274,1.0,3.0,18,0.00,,,1.44,VWS V14.01,2013-10-07 13:16:00,
2013-10-07 09:21:00,56.8,12.5,29.85,West,263,1.0,3.0,17,0.00,,,1.44,VWS V14.01,2013-10-07 13:21:00,
2013-10-07 09:26:00,56.8,12.5,29.85,WSW,240,3.0,4.0,17,0.00,,,1.44,VWS V14.01,2013-10-07 13:26:00,
2013-10-07 09:30:00,59.1,4.7,29.83,West,279,2.0,9.0,11,0.05,,,1.44,VWS V15.00,2013-10-07 13:30:00,
2013-10-07 09:31:00,56.7,12.4,29.85,SW,229,0.0,2.0,17,0.00,,,1.44,VWS V14.01,2013-10-07 13:31:00,
2013-10-07 09:36:00,56.8,11.1,29.85,West,272,0.0,3.0,16,0.00,,,1.44,VWS V14.01,2013-10-07 13:36:00,
2013-10-07 09:41:00,57.1,6.7,29.85,West,278,1.0,3.0,13,0.00,,,1.44,VWS V14.01,2013-10-07 13:41:00,
2013-10-07 09:46:00,57.3,3.3,29.86,WSW,257,1.0,3.0,11,0.00,,,1.44,VWS V14.01,2013-10-07 13:46:00,
2013-10-07 09:51:00,57.6,5.4,29.86,WSW,258,0.0,3.0,12,0.00,,,1.44,VWS V14.01,2013-10-07 13:51:00,
2013-10-07 09:56:00,57.7,10.4,29.86,West,276,0.0,6.0,15,0.00,,,1.44,VWS V14.01,2013-10-07 13:56:00,
2013-10-07 10:00:00,57.8,8.9,29.84,West,277,0.0,6.0,14,0.01,,,1.44,VWS V15.00,2013-10-07 14:00:00,
2013-10-07 10:01:00,57.9,13.4,29.86,WNW,283,0.0,1.0,17,0.00,,,1.44,VWS V14.01,2013-10-07 14:01:00,
2013-10-07 10:06:00,58.0,17.2,29.86,West,279,7.0,7.0,20,0.00,,,1.44,VWS V14.01,2013-10-07 14:06:00,
2013-10-07 10:11:00,58.0,24.2,29.86,West,261,0.0,7.0,27,0.00,,,1.44,VWS V14.01,2013-10-07 14:11:00,
2013-10-07 10:16:00,57.9,29.0,29.86,WNW,286,1.0,11.0,33,0.00,,,1.44,VWS V14.01,2013-10-07 14:16:00,
2013-10-07 10:21:00,58.1,25.2,29.86,West,271,0.0,11.0,28,0.00,,,1.44,VWS V14.01,2013-10-07 14:21:00,
2013-10-07 10:26:00,58.5,26.4,29.86,West,267,0.0,11.0,29,0.00,,,1.44,VWS V14.01,2013-10-07 14:26:00,
2013-10-07 10:30:00,56.8,12.5,29.85,SW,225,3.0,4.0,17,0.00,,,1.44,VWS V15.00,2013-10-07 14:30:00,
2013-10-07 10:31:00,58.9,27.5,29.86,SW,232,0.0,2.0,30,0.00,,,1.44,VWS V14.01,2013-10-07 14:31:00,
2013-10-07 10:36:00,59.5,31.9,29.86,West,271,1.0,3.0,35,0.00,,,1.44,VWS V14.01,2013-10-07 14:36:00,
2013-10-07 10:41:00,60.0,36.9,29.87,West,265,1.0,6.0,42,0.00,,,1.44,VWS V14.01,2013-10-07 14:41:00,
2013-10-07 10:46:00,60.2,42.0,29.86,WSW,242,0.0,10.0,51,0.00,,,1.44,VWS V14.01,2013-10-07 14:46:00,
2013-10-07 10:51:00,60.4,44.7,29.87,WNW,289,0.0,10.0,56,0.00,,,1.44,VWS V14.01,2013-10-07 14:51:00,
2013-10-07 10:56:00,60.5,46.1,29.87,WNW,294,0.0,10.0,59,0.00,,,1.44,VWS V14.01,2013-10-07 14:56:00,
2013-10-07 11:00:00,57.8,13.3,29.86,WNW,283,0.0,6.0,17,0.00,,,1.44,VWS V15.00,2013-10-07 15:00:00,
2013-10-07 11:01:00,60.5,46.6,29.86,West,278,2.0,5.0,60,0.00,,,1.44,VWS V14.01,2013-10-07 15:01:00,
2013-10-07 11:06:00,60.7,46.8,29.86,West,267,3.0,6.0,60,0.00,,,1.44,VWS V14.01,2013-10-07 15:06:00,
2013-10-07 11:11:00,61.1,47.6,29.86,West,262,1.0,8.0,61,0.00,,,1.44,VWS V14.01,2013-10-07 15:11:00,
2013-10-07 11:16:00,61.6,48.0,29.86,WSW,254,1.0,8.0,61,0.00,,,1.44,VWS V14.01,2013-10-07 15:16:00,
2013-10-07 11:21:00,61.9,49.6,29.86,West,275,2.0,8.0,64,0.00,,,1.44,VWS V14.01,2013-10-07 15:21:00,
2013-10-07 11:26:00,62.3,52.0,29.86,West,262,3.0,8.0,69,0.00,,,1.44,VWS V14.01,2013-10-07 15:26:00,
2013-10-07 11:30:00,58.7,27.4,29.86,WNW,294,0.0,11.0,30,0.00,,,1.44,VWS V15.00,2013-10-07 15:30:00,
2013-10-07 11:31:00,62.6,53.1,29.86,WNW,289,7.0,7.0,71,0.00,,,1.44,VWS V14.01,2013-10-07 15:31:00,
2013-10-07 11:36:00,62.3,54.3,29.86,WSW,242,2.0,7.0,75,0.00,,,1.44,VWS V14.01,2013-10-07 15:36:00,
2013-10-07 11:41:00,61.8,53.8,29.86,SSW,208,1.0,8.0,75,0.00,,,1.44,VWS V14.01,2013-10-07 15:41:00,
2013-10-07 11:46:00,61.9,53.2,29.86,West,270,4.0,12.0,73,0.00,,,1.44,VWS V14.01,2013-10-07 15:46:00,
2013-10-07 11:51:00,62.3,52.4,29.86,SW,224,3.0,12.0,70,0.00,,,1.44,VWS V14.01,2013-10-07 15:51:00,
2013-10-07 11:56:00,62.8,54.8,29.87,WSW,251,5.0,12.0,75,0.00,,,1.44,VWS V14.01,2013-10-07 15:56:00,
2013-10-07 12:00:00,60.5,47.0,29.87,WNW,287,2.0,10.0,61,0.00,,,1.44,VWS V15.00,2013-10-07 16:00:00,
2013-10-07 12:01:00,62.9,54.9,29.87,West,267,0.0,5.0,75,0.00,,,1.44,VWS V14.01,2013-10-07 16:01:00,
2013-10-07 12:06:00,63.2,54.8,29.87,SW,230,3.0,9.0,74,0.00,,,1.44,VWS V14.01,2013-10-07 16:06:00,
2013-10-07 12:11:00,63.3,55.2,29.87,West,262,2.0,9.0,75,0.00,,,1.44,VWS V14.01,2013-10-07 16:11:00,
2013-10-07 12:16:00,63.1,55.4,29.87,WNW,302,2.0,9.0,76,0.00,,,1.44,VWS V14.01,2013-10-07 16:16:00,
2013-10-07 12:21:00,62.9,55.6,29.87,WSW,254,3.0,9.0,77,0.00,,,1.44,VWS V14.01,2013-10-07 16:21:00,
2013-10-07 12:26:00,62.9,55.2,29.87,West,273,1.0,9.0,76,0.00,,,1.44,VWS V14.01,2013-10-07 16:26:00,
2013-10-07 12:30:00,62.5,53.4,29.86,WSW,256,0.0,8.0,72,0.00,,,1.44,VWS V15.00,2013-10-07 16:30:00,
2013-10-07 12:31:00,63.1,55.1,29.87,WNW,290,1.0,1.0,75,0.00,,,1.44,VWS V14.01,2013-10-07 16:31:00,
2013-10-07 12:36:00,63.1,55.4,29.87,West,275,0.0,7.0,76,0.00,,,1.44,VWS V14.01,2013-10-07 16:36:00,
2013-10-07 12:41:00,63.0,55.7,29.87,NW,310,2.0,10.0,77,0.00,,,1.44,VWS V14.01,2013-10-07 16:41:00,
2013-10-07 12:46:00,63.0,55.7,29.87,WSW,250,2.0,10.0,77,0.00,,,1.44,VWS V14.01,2013-10-07 16:46:00,
2013-10-07 12:51:00,63.0,56.0,29.87,WSW,258,3.0,10.0,78,0.00,,,1.44,VWS V14.01,2013-10-07 16:51:00,
2013-10-07 12:56:00,63.3,56.3,29.87,West,279,3.0,10.0,78,0.00,,,1.44,VWS V14.01,2013-10-07 16:56:00,
2013-10-07 13:00:00,62.8,54.8,29.87,West,260,2.0,12.0,75,0.00,,,1.44,VWS V15.00,2013-10-07 17:00:00,
2013-10-07 13:01:00,63.8,56.8,29.87,WNW,288,0.0,5.0,78,0.00,,,1.44,VWS V14.01,2013-10-07 17:01:00,
2013-10-07 13:06:00,64.1,57.1,29.86,West,272,0.0,6.0,78,0.00,,,1.44,VWS V14.01,2013-10-07 17:06:00,
2013-10-07 13:11:00,64.6,57.2,29.87,West,265,3.0,6.0,77,0.00,,,1.44,VWS V14.01,2013-10-07 17:11:00,
2013-10-07 13:16:00,64.8,57.4,29.86,West,264,0.0,8.0,77,0.00,,,1.44,VWS V14.01,2013-10-07 17:16:00,
2013-10-07 13:21:00,65.0,58.0,29.86,SW,230,0.0,8.0,78,0.00,,,1.44,VWS V14.01,2013-10-07 17:21:00,
2013-10-07 13:26:00,65.4,58.0,29.86,SW,231,0.0,8.0,77,0.00,,,1.44,VWS V14.01,2013-10-07 17:26:00,
2013-10-07 13:30:00,63.0,55.3,29.87,NW,309,0.0,9.0,76,0.00,,,1.44,VWS V15.00,2013-10-07 17:30:00,
2013-10-07 13:31:00,65.5,57.7,29.86,SW,226,1.0,5.0,76,0.00,,,1.44,VWS V14.01,2013-10-07 17:31:00,
2013-10-07 13:36:00,65.4,57.7,29.86,West,269,0.0,8.0,76,0.00,,,1.44,VWS V14.01,2013-10-07 17:36:00,
2013-10-07 13:41:00,65.5,58.1,29.85,WSW,257,1.0,8.0,77,0.00,,,1.44,VWS V14.01,2013-10-07 17:41:00,
2013-10-07 13:46:00,65.4,58.0,29.85,South,173,0.0,8.0,77,0.00,,,1.44,VWS V14.01,2013-10-07 17:46:00,
2013-10-07 13:51:00,65.5,58.1,29.86,West,273,0.0,8.0,77,0.00,,,1.44,VWS V14.01,2013-10-07 17:51:00,
2013-10-07 13:56:00,65.5,57.7,29.86,WNW,286,2.0,8.0,76,0.00,,,1.44,VWS V14.01,2013-10-07 17:56:00,
2013-10-07 14:00:00,63.6,56.3,29.87,NW,311,0.0,10.0,77,0.00,,,1.44,VWS V15.00,2013-10-07 18:00:00,
2013-10-07 14:01:00,65.2,57.1,29.86,West,274,0.0,7.0,75,0.00,,,1.44,VWS V14.01,2013-10-07 18:01:00,
2013-10-07 14:06:00,65.0,56.9,29.86,SW,227,1.0,7.0,75,0.00,,,1.44,VWS V14.01,2013-10-07 18:06:00,
2013-10-07 14:11:00,64.8,56.7,29.86,SW,233,5.0,7.0,75,0.00,,,1.44,VWS V14.01,2013-10-07 18:11:00,
2013-10-07 14:16:00,64.3,56.6,29.86,WNW,283,0.0,8.0,76,0.00,,,1.44,VWS V14.01,2013-10-07 18:16:00,
2013-10-07 14:21:00,64.1,56.4,29.86,SSE,149,0.0,8.0,76,0.00,,,1.44,VWS V14.01,2013-10-07 18:21:00,
2013-10-07 14:26:00,64.0,55.9,29.87,West,260,0.0,8.0,75,0.00,,,1.44,VWS V14.01,2013-10-07 18:26:00,
2013-10-07 14:30:00,65.5,58.1,29.86,West,262,0.0,8.0,77,0.00,,,1.44,VWS V15.00,2013-10-07 18:30:00,
2013-10-07 14:31:00,63.7,55.6,29.87,WSW,257,0.0,8.0,75,0.00,,,1.44,VWS V14.01,2013-10-07 18:31:00,
2013-10-07 14:36:00,63.6,55.9,29.86,West,261,1.0,8.0,76,0.00,,,1.44,VWS V14.01,2013-10-07 18:36:00,
2013-10-07 14:41:00,63.4,55.7,29.87,SW,234,1.0,10.0,76,0.00,,,1.44,VWS V14.01,2013-10-07 18:41:00,
2013-10-07 14:46:00,63.0,55.3,29.86,WSW,257,3.0,10.0,76,0.00,,,1.44,VWS V14.01,2013-10-07 18:46:00,
2013-10-07 14:51:00,62.3,54.7,29.86,West,263,0.0,11.0,76,0.00,,,1.44,VWS V14.01,2013-10-07 18:51:00,
2013-10-07 14:56:00,61.8,54.5,29.86,WSW,258,0.0,11.0,77,0.00,,,1.44,VWS V14.01,2013-10-07 18:56:00,
2013-10-07 15:00:00,65.4,57.3,29.86,WSW,242,0.0,9.0,75,0.00,,,1.44,VWS V15.00,2013-10-07 19:00:00,
2013-10-07 15:01:00,61.6,54.7,29.86,WNW,295,0.0,3.0,78,0.00,,,1.44,VWS V14.01,2013-10-07 19:01:00,
2013-10-07 15:06:00,61.5,54.2,29.87,WNW,283,0.0,5.0,77,0.00,,,1.44,VWS V14.01,2013-10-07 19:06:00,
2013-10-07 15:11:00,61.5,54.6,29.87,WSW,252,0.0,6.0,78,0.00,,,1.44,VWS V14.01,2013-10-07 19:11:00,
2013-10-07 15:16:00,61.3,54.0,29.87,West,261,4.0,7.0,77,0.00,,,1.44,VWS V14.01,2013-10-07 19:16:00,
2013-10-07 15:21:00,61.1,53.8,29.87,WSW,250,1.0,7.0,77,0.00,,,1.44,VWS V14.01,2013-10-07 19:21:00,
2013-10-07 15:26:00,60.8,53.9,29.87,WSW,254,1.0,9.0,78,0.00,,,1.44,VWS V14.01,2013-10-07 19:26:00,
2013-10-07 15:30:00,63.9,55.8,29.87,WSW,246,1.0,8.0,75,0.00,,,1.44,VWS V15.00,2013-10-07 19:30:00,
2013-10-07 15:31:00,60.8,53.9,29.87,WNW,284,0.0,3.0,78,0.00,,,1.44,VWS V14.01,2013-10-07 19:31:00,
2013-10-07 15:36:00,61.0,54.1,29.88,WNW,287,1.0,3.0,78,0.00,,,1.44,VWS V14.01,2013-10-07 19:36:00,
2013-10-07 15:41:00,61.3,54.4,29.88,SSW,204,3.0,4.0,78,0.00,,,1.44,VWS V14.01,2013-10-07 19:41:00,
2013-10-07 15:46:00,61.4,54.1,29.88,West,281,1.0,5.0,77,0.00,,,1.44,VWS V14.01,2013-10-07 19:46:00,
2013-10-07 15:51:00,61.7,54.8,29.88,West,274,0.0,6.0,78,0.00,,,1.44,VWS V14.01,2013-10-07 19:51:00,
2013-10-07 15:56:00,62.0,54.7,29.88,West,274,0.0,6.0,77,0.00,,,1.44,VWS V14.01,2013-10-07 19:56:00,
2013-10-07 16:00:00,61.6,54.3,29.86,WNW,290,0.0,11.0,77,0.00,,,1.44,VWS V15.00,2013-10-07 20:00:00,
2013-10-07 16:01:00,62.5,54.8,29.88,South,188,2.0,5.0,76,0.00,,,1.44,VWS V14.01,2013-10-07 20:01:00,
2013-10-07 16:06:00,62.6,54.6,29.88,West,279,0.0,5.0,75,0.00,,,1.44,VWS V14.01,2013-10-07 20:06:00,
2013-10-07 16:11:00,62.8,55.5,29.88,SW,227,0.0,5.0,77,0.00,,,1.44,VWS V14.01,2013-10-07 20:11:00,
2013-10-07 16:16:00,63.1,55.4,29.88,SW,227,0.0,5.0,76,0.00,,,1.44,VWS V14.01,2013-10-07 20:16:00,
2013-10-07 16:21:00,63.2,54.8,29.88,West,275,1.0,5.0,74,0.00,,,1.44,VWS V14.01,2013-10-07 20:21:00,
2013-10-07 16:25:00,63.3,55.2,29.88,NW,315,0.0,5.0,75,0.00,,,1.44,VWS V14.01,2013-10-07 20:25:00,
2013-10-07 16:30:00,63.5,55.4,29.87,WSW,246,1.0,4.0,75,0.00,,,1.44,VWS V14.01,2013-10-07 20:30:00,
2013-10-07 16:35:00,63.7,55.6,29.88,West,271,2.0,4.0,75,0.00,,,1.44,VWS V14.01,2013-10-07 20:35:00,
2013-10-07 16:40:00,64.1,55.7,29.87,West,264,0.0,4.0,74,0.00,,,1.44,VWS V14.01,2013-10-07 20:40:00,
2013-10-07 16:45:00,64.3,55.8,29.87,West,278,0.0,7.0,74,0.00,,,1.44,VWS V14.01,2013-10-07 20:45:00,
2013-10-07 16:50:00,64.7,55.5,29.87,West,279,2.0,9.0,72,0.00,,,1.44,VWS V14.01,2013-10-07 20:50:00,
2013-10-07 16:55:00,64.9,56.0,29.87,West,279,0.0,9.0,73,0.00,,,1.44,VWS V14.01,2013-10-07 20:55:00,
2013-10-07 17:00:00,62.3,55.0,29.88,SW,232,3.0,6.0,77,0.00,,,1.44,VWS V15.00,2013-10-07 21:00:00,
2013-10-07 17:01:00,64.9,56.0,29.87,WSW,255,3.0,4.0,73,0.00,,,1.44,VWS V14.01,2013-10-07 21:01:00,
2013-10-07 17:06:00,64.7,55.9,29.88,WNW,292,4.0,6.0,73,0.00,,,1.44,VWS V14.01,2013-10-07 21:06:00,
2013-10-07 17:10:00,64.5,55.7,29.88,SW,215,0.0,6.0,73,0.00,,,1.44,VWS V14.01,2013-10-07 21:10:00,
2013-10-07 17:15:00,64.3,55.8,29.88,West,264,1.0,6.0,74,0.00,,,1.44,VWS V14.01,2013-10-07 21:15:00,
2013-10-07 17:20:00,64.0,55.6,29.87,WSW,238,1.0,6.0,74,0.00,,,1.44,VWS V14.01,2013-10-07 21:20:00,
2013-10-07 17:25:00,63.9,55.5,29.87,WNW,288,2.0,7.0,74,0.00,,,1.44,VWS V14.01,2013-10-07 21:25:00,
2013-10-07 17:30:00,63.7,55.6,29.87,SW,223,0.0,5.0,75,0.00,,,1.44,VWS V14.01,2013-10-07 21:30:00,
2013-10-07 17:35:00,63.6,55.5,29.88,West,269,0.0,6.0,75,0.00,,,1.44,VWS V14.01,2013-10-07 21:35:00,
2013-10-07 17:40:00,63.6,55.5,29.88,WNW,292,0.0,6.0,75,0.00,,,1.44,VWS V14.01,2013-10-07 21:40:00,
2013-10-07 17:45:00,63.5,55.1,29.88,WSW,254,1.0,6.0,74,0.00,,,1.44,VWS V14.01,2013-10-07 21:45:00,
2013-10-07 17:50:00,63.5,55.4,29.88,West,265,1.0,6.0,75,0.00,,,1.44,VWS V14.01,2013-10-07 21:50:00,
2013-10-07 17:55:00,63.4,55.3,29.88,WNW,293,0.0,6.0,75,0.00,,,1.44,VWS V14.01,2013-10-07 21:55:00,
2013-10-07 18:00:00,63.4,55.3,29.89,West,271,0.0,4.0,75,0.00,,,1.44,VWS V14.01,2013-10-07 22:00:00,
2013-10-07 18:05:00,63.4,55.3,29.89,WNW,286,2.0,5.0,75,0.00,,,1.44,VWS V14.01,2013-10-07 22:05:00,
2013-10-07 18:10:00,63.2,54.8,29.89,West,269,1.0,6.0,74,0.00,,,1.44,VWS V14.01,2013-10-07 22:10:00,
2013-10-07 18:15:00,63.0,54.6,29.90,West,262,2.0,6.0,74,0.00,,,1.44,VWS V14.01,2013-10-07 22:15:00,
2013-10-07 18:20:00,62.6,54.6,29.90,WNW,298,1.0,6.0,75,0.00,,,1.44,VWS V14.01,2013-10-07 22:20:00,
2013-10-07 18:25:00,62.2,54.2,29.90,West,264,1.0,10.0,75,0.00,,,1.44,VWS V14.01,2013-10-07 22:25:00,
2013-10-07 18:30:00,61.9,53.9,29.91,West,261,3.0,3.0,75,0.00,,,1.44,VWS V14.01,2013-10-07 22:30:00,
2013-10-07 18:35:00,61.5,53.9,29.90,West,266,1.0,5.0,76,0.00,,,1.44,VWS V14.01,2013-10-07 22:35:00,
2013-10-07 18:40:00,61.1,53.5,29.91,West,280,0.0,5.0,76,0.00,,,1.44,VWS V14.01,2013-10-07 22:40:00,
2013-10-07 18:45:00,60.7,53.5,29.91,West,259,0.0,5.0,77,0.00,,,1.44,VWS V14.01,2013-10-07 22:45:00,
2013-10-07 18:50:00,60.3,53.1,29.91,WNW,290,3.0,5.0,77,0.00,,,1.44,VWS V14.01,2013-10-07 22:50:00,
2013-10-07 18:55:00,60.0,52.8,29.91,WSW,253,0.0,6.0,77,0.00,,,1.44,VWS V14.01,2013-10-07 22:55:00,
2013-10-07 19:00:00,59.6,52.4,29.92,West,272,6.0,6.0,77,0.00,,,1.44,VWS V14.01,2013-10-07 23:00:00,
2013-10-07 19:05:00,59.1,52.3,29.92,West,260,0.0,7.0,78,0.00,,,1.44,VWS V14.01,2013-10-07 23:05:00,
2013-10-07 19:10:00,58.7,51.9,29.92,West,277,0.0,7.0,78,0.00,,,1.44,VWS V14.01,2013-10-07 23:10:00,
2013-10-07 19:15:00,58.4,51.6,29.92,West,278,2.0,7.0,78,0.00,,,1.44,VWS V14.01,2013-10-07 23:15:00,
2013-10-07 19:20:00,58.1,51.3,29.93,SW,221,2.0,9.0,78,0.00,,,1.44,VWS V14.01,2013-10-07 23:20:00,
2013-10-07 19:25:00,57.8,51.3,29.93,West,281,1.0,9.0,79,0.00,,,1.44,VWS V14.01,2013-10-07 23:25:00,
2013-10-07 19:30:00,57.5,51.0,29.93,WSW,258,1.0,7.0,79,0.00,,,1.44,VWS V14.01,2013-10-07 23:30:00,
2013-10-07 19:35:00,57.3,50.8,29.93,WNW,300,0.0,7.0,79,0.00,,,1.44,VWS V14.01,2013-10-07 23:35:00,
2013-10-07 19:40:00,57.1,50.7,29.93,West,274,0.0,7.0,79,0.00,,,1.44,VWS V14.01,2013-10-07 23:40:00,
2013-10-07 19:45:00,56.9,50.5,29.93,WNW,301,2.0,7.0,79,0.00,,,1.44,VWS V14.01,2013-10-07 23:45:00,
2013-10-07 19:50:00,56.7,50.3,29.93,West,272,0.0,8.0,79,0.00,,,1.44,VWS V14.01,2013-10-07 23:50:00,
2013-10-07 19:55:00,56.5,50.1,29.93,West,275,0.0,8.0,79,0.00,,,1.44,VWS V14.01,2013-10-07 23:55:00,
2013-10-07 20:00:00,56.3,49.9,29.93,West,262,0.0,4.0,79,0.00,,,1.44,VWS V14.01,2013-10-08 00:00:00,
2013-10-07 20:05:00,56.2,49.4,29.93,West,269,0.0,4.0,78,0.00,,,1.44,VWS V14.01,2013-10-08 00:05:00,
2013-10-07 20:10:00,56.0,49.2,29.94,WNW,289,0.0,6.0,78,0.00,,,1.44,VWS V14.01,2013-10-08 00:10:00,
2013-10-07 20:15:00,55.9,49.2,29.94,West,277,0.0,6.0,78,0.00,,,1.44,VWS V14.01,2013-10-08 00:15:00,
2013-10-07 20:20:00,55.8,49.0,29.94,WSW,253,4.0,6.0,78,0.00,,,1.44,VWS V14.01,2013-10-08 00:20:00,
2013-10-07 20:25:00,55.6,48.9,29.94,West,276,0.0,6.0,78,0.00,,,1.44,VWS V14.01,2013-10-08 00:25:00,
2013-10-07 20:30:00,55.5,48.4,29.95,West,271,2.0,2.0,77,0.00,,,1.44,VWS V14.01,2013-10-08 00:30:00,
2013-10-07 20:35:00,55.4,48.3,29.95,West,262,0.0,4.0,77,0.00,,,1.44,VWS V14.01,2013-10-08 00:35:00,
2013-10-07 20:40:00,55.2,48.1,29.95,West,263,4.0,4.0,77,0.00,,,1.44,VWS V14.01,2013-10-08 00:40:00,
2013-10-07 20:45:00,55.1,48.0,29.96,West,261,0.0,4.0,77,0.00,,,1.44,VWS V14.01,2013-10-08 00:45:00,
2013-10-07 20:50:00,55.0,47.9,29.96,WSW,255,0.0,4.0,77,0.00,,,1.44,VWS V14.01,2013-10-08 00:50:00,
2013-10-07 20:55:00,54.8,47.4,29.96,WSW,255,0.0,4.0,76,0.00,,,1.44,VWS V14.01,2013-10-08 00:55:00,
2013-10-07 21:00:00,54.6,46.8,29.96,WSW,255,0.0,1.0,75,0.00,,,1.44,VWS V14.01,2013-10-08 01:00:00,
2013-10-07 21:05:00,54.4,46.7,29.96,West,271,0.0,3.0,75,0.00,,,1.44,VWS V14.01,2013-10-08 01:05:00,
2013-10-07 21:10:00,54.3,46.6,29.97,West,271,0.0,3.0,75,0.00,,,1.44,VWS V14.01,2013-10-08 01:10:00,
2013-10-07 21:15:00,54.2,45.8,29.97,West,271,0.0,3.0,73,0.00,,,1.44,VWS V14.01,2013-10-08 01:15:00,
2013-10-07 21:20:00,54.0,45.5,29.97,West,271,1.0,3.0,73,0.00,,,1.44,VWS V14.01,2013-10-08 01:20:00,
2013-10-07 21:25:00,53.9,45.5,29.97,West,271,0.0,3.0,73,0.00,,,1.44,VWS V14.01,2013-10-08 01:25:00,
2013-10-07 21:30:00,53.7,45.3,29.97,West,268,2.0,2.0,73,0.00,,,1.44,VWS V14.01,2013-10-08 01:30:00,
2013-10-07 21:35:00,53.7,45.3,29.97,WSW,258,0.0,5.0,73,0.00,,,1.44,VWS V14.01,2013-10-08 01:35:00,
2013-10-07 21:40:00,53.6,44.8,29.98,WSW,258,0.0,5.0,72,0.00,,,1.44,VWS V14.01,2013-10-08 01:40:00,
2013-10-07 21:45:00,53.5,44.7,29.98,West,269,0.0,5.0,72,0.00,,,1.44,VWS V14.01,2013-10-08 01:45:00,
2013-10-07 21:50:00,53.4,44.2,29.98,West,269,0.0,5.0,71,0.00,,,1.44,VWS V14.01,2013-10-08 01:50:00,
2013-10-07 21:55:00,53.3,44.2,29.99,West,269,0.0,5.0,71,0.00,,,1.44,VWS V14.01,2013-10-08 01:55:00,
2013-10-07 22:00:00,53.2,43.7,29.99,West,269,0.0,0.0,70,0.00,,,1.44,VWS V14.01,2013-10-08 02:00:00,
2013-10-07 22:05:00,53.1,42.8,29.99,West,269,0.0,0.0,68,0.00,,,1.44,VWS V14.01,2013-10-08 02:05:00,
2013-10-07 22:10:00,53.0,42.3,29.99,West,269,0.0,0.0,67,0.00,,,1.44,VWS V14.01,2013-10-08 02:10:00,
2013-10-07 22:15:00,52.8,42.2,30.00,West,269,0.0,0.0,67,0.00,,,1.44,VWS V14.01,2013-10-08 02:15:00,
2013-10-07 22:20:00,52.5,41.5,30.00,West,269,0.0,0.0,66,0.00,,,1.44,VWS V14.01,2013-10-08 02:20:00,
2013-10-07 22:25:00,52.2,40.8,30.00,West,269,0.0,0.0,65,0.00,,,1.44,VWS V14.01,2013-10-08 02:25:00,
2013-10-07 22:30:00,51.9,39.7,30.00,West,269,0.0,0.0,63,0.00,,,1.44,VWS V14.01,2013-10-08 02:30:00,
2013-10-07 22:35:00,51.6,38.6,30.01,West,269,0.0,0.0,61,0.00,,,1.44,VWS V14.01,2013-10-08 02:35:00,
2013-10-07 22:40:00,51.3,37.0,30.01,West,269,0.0,0.0,58,0.00,,,1.44,VWS V14.01,2013-10-08 02:40:00,
2013-10-07 22:45:00,51.1,35.5,30.01,West,269,0.0,0.0,55,0.00,,,1.44,VWS V14.01,2013-10-08 02:45:00,
2013-10-07 22:50:00,51.0,34.0,30.01,West,269,0.0,0.0,52,0.00,,,1.44,VWS V14.01,2013-10-08 02:50:00,
2013-10-07 22:55:00,50.8,33.3,30.01,West,269,0.0,0.0,51,0.00,,,1.44,VWS V14.01,2013-10-08 02:55:00,
2013-10-07 23:00:00,50.5,33.1,30.01,West,269,0.0,0.0,51,0.00,,,1.44,VWS V14.01,2013-10-08 03:00:00,
2013-10-07 23:05:00,50.3,31.9,30.01,West,269,0.0,0.0,49,0.00,,,1.44,VWS V14.01,2013-10-08 03:05:00,
2013-10-07 23:10:00,50.1,31.2,30.01,West,269,0.0,0.0,48,0.00,,,1.44,VWS V14.01,2013-10-08 03:10:00,
2013-10-07 23:15:00,49.9,31.0,30.01,West,269,0.0,0.0,48,0.00,,,1.44,VWS V14.01,2013-10-08 03:15:00,
2013-10-07 23:20:00,49.6,30.2,30.02,West,269,0.0,0.0,47,0.00,,,1.44,VWS V14.01,2013-10-08 03:20:00,
2013-10-07 23:25:00,49.4,29.0,30.02,West,269,0.0,0.0,45,0.00,,,1.44,VWS V14.01,2013-10-08 03:25:00,
2013-10-07 23:30:00,49.3,28.3,30.02,West,269,0.0,0.0,44,0.00,,,1.44,VWS V14.01,2013-10-08 03:30:00,
2013-10-07 23:35:00,49.1,27.0,30.02,West,269,0.0,0.0,42,0.00,,,1.44,VWS V14.01,2013-10-08 03:35:00,
2013-10-07 23:40:00,49.0,25.8,30.02,West,269,0.0,0.0,40,0.00,,,1.44,VWS V14.01,2013-10-08 03:40:00,
2013-10-07 23:45:00,48.7,26.6,30.03,West,269,0.0,0.0,42,0.00,,,1.44,VWS V14.01,2013-10-08 03:45:00,
2013-10-07 23:50:00,48.6,25.4,30.03,West,269,0.0,0.0,40,0.00,,,1.44,VWS V14.01,2013-10-08 03:50:00,
2013-10-07 23:55:00,48.4,25.2,30.03,West,269,0.0,0.0,40,0.00,,,1.44,VWS V14.01,2013-10-08 03:55:00,